Location: Newark
(45.8667°N, 9.7333°E)
Time: 14:56:04
(UTC+00:00)

ITAMSAT 1 - Pass Details

Date: 24 February 2020
Orbit: 784 x 796 km, 98.9° (Epoch: 08 April)

Event Time Altitude Azimuth Distance (km) Brightness Sun altitude
Rises 05:20:43 0° 13° (NNE) 3,308 11.0 -9.3°
Reaches altitude 10° 05:23:03 10° 13° (NNE) 2,376 10.3 -8.9°
Maximum altitude 05:28:19 82° 286° (WNW) 810 7.7 -8.0°
Drops below altitude 10° 05:33:32 10° 200° (SSW) 2,361 10.0 -7.1°
Sets 05:35:51 0° 199° (SSW) 3,286 10.7 -6.7°
